[[{"header":{"parameterUnit":"m.s-1","parameterCategory":1,"la1":30.2991,"la2":30.254,"lo1":-89.0895,"lo2":-89.0444,"dy":0.0017,"dx":0.0017,"nx":28,"ny":28,"refTime":"2023-10-09T09:00:00:Z","depth":0,"parameterNumber":2,"parameterNumberName":"U-component_of_WINDS"},"data":[0,0,0,0,0,0,0,0,0,0,0,0,0,0,0,0,0,0,0,0,0,0,0,0,0,0,0,0,0,0,0,0,0,0,0,0,0,0,0,0,0,0,0,0,0,0,0,0,0,0,0,0,0,0,0,0,0,0,-0.1282,-0.1281,0,-0.1211,-0.121,-0.1209,-0.1164,-0.1164,-0.1163,-0.1163,-0.1089,-0.1087,-0.1085,0,0,0,0,0,0,0,0,0,0,0,0,0,-0.1378,-0.1376,-0.1282,-0.1281,-0.128,-0.1211,-0.121,-0.1209,-0.1164,-0.1164,-0.1163,-0.1163,-0.1089,-0.1087,-0.1085,0,0,0,0,0,0,0,0,0,0,0,0,0,-0.1324,-0.1376,-0.1282,-0.1249,-0.1246,-0.1211,-0.121,-0.1208,-0.1164,-0.1164,-0.1163,-0.1163,-0.109,-0.1087,-0.1085,-0.1076,0,0,-0.1077,-0.1075,0,0,0,0,0,0,0,0,-0.1327,-0.1321,-0.1255,-0.1252,-0.1247,-0.1196,-0.1216,-0.1164,-0.1164,-0.1195,-0.1163,-0.1163,-0.1124,-0.1119,-0.1106,-0.1073,-0.1069,-0.1076,-0.1075,-0.1074,-0.1073,0,0,0,0,0,0,0,-0.1331,-0.1324,-0.1253,-0.1254,-0.1249,-0.1238,-0.123,-0.1206,-0.1163,-0.1192,-0.1189,-0.1181,-0.1122,-0.1109,-0.1104,-0.1068,-0.1076,-0.1074,-0.1073,-0.1071,-0.1024,-0.1024,0,0,0,0,0,0,-0.134,-0.1327,-0.1256,-0.1251,-0.1287,-0.1236,-0.1227,-0.1213,-0.1163,-0.1155,-0.1182,-0.1179,-0.1114,-0.1107,-0.1101,-0.1088,-0.1074,-0.1071,-0.107,-0.1024,-0.1024,-0.1024,0,0,0,0,0,0,-0.1342,-0.1334,-0.1259,-0.1288,-0.1278,-0.1235,-0.1219,-0.1211,-0.1198,-0.1155,-0.1147,-0.1176,-0.1113,-0.1105,-0.1083,-0.1085,-0.107,-0.1068,-0.1023,-0.1024,-0.1024,-0.1062,0,0,0,0,0,0,-0.1345,-0.1335,-0.1332,-0.1289,-0.1276,-0.1242,-0.1219,-0.121,-0.1194,-0.119,-0.1147,-0.114,-0.1112,-0.1087,-0.108,-0.1081,-0.1066,-0.1023,-0.1024,-0.1024,-0.106,-0.1064,-0.1067,0,0,0,0,0,-0.1349,-0.1345,-0.1332,-0.1324,-0.1271,-0.1242,-0.1235,-0.1204,-0.1194,-0.119,-0.1162,-0.1141,-0.1086,-0.1085,-0.1077,-0.1077,-0.1023,-0.1023,-0.1024,-0.1059,-0.1063,-0.1066,0,0,0,0,0,0,-0.1389,-0.1339,-0.1324,-0.1306,-0.1279,-0.1235,-0.1229,-0.1209,-0.1183,-0.1181,-0.1143,-0.1134,-0.1115,-0.1094,-0.1094,-0.1066,-0.1052,-0.1051,-0.1081,-0.1085,-0.1088,-0.1093,-0.1063,0,0,0,0,0,-0.1396,-0.1377,-0.1334,-0.1322,-0.1309,-0.1271,-0.1257,-0.1236,-0.1206,-0.1194,-0.1164,-0.1136,-0.1112,-0.1097,-0.1073,-0.1057,-0.1047,-0.1053,-0.1056,-0.1059,-0.1059,-0.1049,-0.1051,-0.1027,-0.1027,-0.1027,0,0,-0.141,-0.138,-0.137,-0.1329,-0.1306,-0.1286,-0.1262,-0.1242,-0.1228,-0.1191,-0.1168,-0.1146,-0.1111,-0.1092,-0.1083,-0.1074,-0.1063,-0.106,-0.1063,-0.1061,-0.105,-0.1053,-0.1055,-0.1027,-0.1027,-0.1027,0,0,-0.1425,-0.1401,-0.1388,-0.1365,-0.133,-0.1305,-0.1302,-0.1261,-0.1245,-0.1222,-0.1194,-0.1176,-0.1135,-0.1112,-0.1095,-0.1102,-0.1082,-0.1095,-0.1111,-0.1102,-0.1104,-0.1106,-0.1109,-0.111,-0.1095,-0.1095,-0.1095,0,-0.1446,-0.1417,-0.1384,-0.1367,-0.1349,-0.1316,-0.1303,-0.1282,-0.1241,-0.123,-0.1221,-0.117,-0.1144,-0.112,-0.1122,-0.1109,-0.1104,-0.11,-0.1107,-0.1108,-0.1109,-0.1111,-0.1112,-0.1097,-0.1097,-0.1097,-0.1096,0,-0.1445,-0.1425,-0.1419,-0.1381,-0.1363,-0.1348,-0.1313,-0.1298,-0.1278,-0.1254,-0.1231,-0.1199,-0.1168,-0.1161,-0.1141,-0.1133,-0.1129,-0.1114,-0.1099,-0.1114,-0.1115,-0.1116,-0.11,-0.1099,-0.1098,-0.1098,0,0,-0.1483,-0.1428,-0.1426,-0.1408,-0.1367,-0.1351,-0.1334,-0.1305,-0.1293,-0.1266,-0.1251,-0.1218,-0.1204,-0.1185,-0.1161,-0.1154,-0.1162,-0.1139,-0.1138,-0.1145,-0.1152,-0.1164,-0.1166,-0.1148,-0.1148,-0.1148,-0.1155,0,-0.1493,-0.1462,-0.1432,-0.1411,-0.1393,-0.1361,-0.1346,-0.1319,-0.1296,-0.1277,-0.1251,-0.1228,-0.1211,-0.12,-0.119,-0.1163,-0.1163,-0.1162,-0.1134,-0.1133,-0.1144,-0.1166,-0.1178,-0.1187,-0.1156,-0.1156,-0.1156,0,-0.1499,-0.1474,-0.1452,-0.1414,-0.1404,-0.1392,-0.1363,-0.1344,-0.1313,-0.1297,-0.1276,-0.1252,-0.1232,-0.1219,-0.1192,-0.1192,-0.1179,-0.1163,-0.1163,-0.1159,-0.1145,-0.1163,-0.1189,-0.119,-0.1156,-0.1156,-0.1156,0,-0.153,-0.1491,-0.1472,-0.1458,-0.1413,-0.1405,-0.1385,-0.1354,-0.1338,-0.1312,-0.1301,-0.1273,-0.1258,-0.1236,-0.1205,-0.1199,-0.1181,-0.1166,-0.1167,-0.1168,-0.1165,-0.1166,-0.1189,-0.1157,-0.1157,-0.1156,-0.1156,0,-0.1544,-0.1532,-0.1486,-0.1474,-0.146,-0.1426,-0.1412,-0.139,-0.1362,-0.1346,-0.1316,-0.1301,-0.1261,-0.1241,-0.1217,-0.1198,-0.1191,-0.1178,-0.1171,-0.118,-0.1182,-0.1171,-0.117,-0.1157,-0.1157,-0.1157,-0.1157,0,-0.1575,-0.1544,-0.1522,-0.1481,-0.147,-0.1462,-0.1426,-0.1414,-0.139,-0.1369,-0.1363,-0.1324,-0.13,-0.1267,-0.1231,-0.1215,-0.12,-0.1189,-0.121,-0.1207,-0.1211,-0.1211,-0.1227,-0.1228,-0.1195,-0.1196,-0.1196,0,-0.1586,-0.1576,-0.1534,-0.1522,-0.1503,-0.1483,-0.1467,-0.1433,-0.1417,-0.1381,-0.1374,-0.1347,-0.1324,-0.1286,-0.1255,-0.1228,-0.1217,-0.1225,-0.1213,-0.1222,-0.1217,-0.1218,-0.1217,-0.1228,-0.1228,-0.1229,-0.1229,0,-0.1609,-0.1594,-0.1572,-0.1545,-0.1527,-0.1504,-0.1479,-0.1471,-0.1431,-0.1415,-0.139,-0.1372,-0.1337,-0.1311,-0.128,-0.1259,-0.1238,-0.1233,-0.1232,-0.1241,-0.1254,-0.1248,-0.1219,-0.1233,-0.1232,-0.1232,-0.1232,-0.1232,-0.1631,-0.1621,-0.159,-0.1566,-0.1545,-0.1522,-0.1509,-0.1484,-0.1462,-0.1431,-0.1412,-0.1388,-0.1357,-0.1314,-0.1294,-0.1275,-0.1266,-0.1264,-0.1264,-0.1264,-0.1268,-0.1257,-0.1269,-0.1269,-0.1268,-0.1268,-0.1268,0,-0.1652,-0.1631,-0.161,-0.1577,-0.1559,-0.1541,-0.1513,-0.1498,-0.1478,-0.1451,-0.1429,-0.1401,-0.1375,-0.1342,-0.1315,-0.1305,-0.1295,-0.1299,-0.13,-0.1295,-0.1277,-0.1281,-0.1308,-0.1308,-0.1308,-0.1308,-0.1308,-0.1308,-0.1661,-0.1643,-0.1625,-0.1596,-0.1574,-0.1551,-0.1537,-0.1516,-0.1495,-0.1464,-0.1443,-0.1422,-0.1393,-0.1363,-0.1339,-0.133,-0.1321,-0.1329,-0.1317,-0.13,-0.1297,-0.1293,-0.1296,-0.1327,-0.1327,-0.1337,-0.1337,-0.1337]},{"header":{"parameterUnit":"m.s-1","parameterCategory":1,"la1":30.2991,"la2":30.254,"lo1":-89.0895,"lo2":-89.0444,"dy":0.0017,"dx":0.0017,"nx":28,"ny":28,"refTime":"2023-10-09T09:00:00:Z","depth":0,"parameterNumber":3,"parameterNumberName":"V-component_of_WINDS"},"data":[0,0,0,0,0,0,0,0,0,0,0,0,0,0,0,0,0,0,0,0,0,0,0,0,0,0,0,0,0,0,0,0,0,0,0,0,0,0,0,0,0,0,0,0,0,0,0,0,0,0,0,0,0,0,0,0,0,0,1.5704,1.5704,0,1.5643,1.5642,1.5641,1.5659,1.566,1.5662,1.5663,1.5595,1.5592,1.5589,0,0,0,0,0,0,0,0,0,0,0,0,0,1.5833,1.5831,1.5704,1.5704,1.5703,1.5643,1.5642,1.5641,1.5659,1.566,1.5662,1.5664,1.5596,1.5592,1.5589,0,0,0,0,0,0,0,0,0,0,0,0,0,1.5775,1.583,1.5704,1.5705,1.5704,1.5643,1.5642,1.5641,1.5659,1.5661,1.5662,1.5664,1.5597,1.5592,1.5588,1.5521,0,0,1.5574,1.5572,0,0,0,0,0,0,0,0,1.5778,1.577,1.5705,1.5705,1.5704,1.5661,1.5662,1.5601,1.5658,1.5676,1.5663,1.5665,1.5615,1.5609,1.5593,1.5518,1.5515,1.5574,1.5571,1.5569,1.5568,0,0,0,0,0,0,0,1.5782,1.5773,1.568,1.5704,1.5703,1.5706,1.57,1.5651,1.5635,1.5674,1.5675,1.5668,1.5615,1.5597,1.5591,1.5514,1.5574,1.557,1.5567,1.5565,1.5381,1.5379,0,0,0,0,0,0,1.5787,1.5776,1.5682,1.5678,1.5747,1.5702,1.5695,1.5672,1.5636,1.5632,1.5667,1.5669,1.5604,1.5597,1.5589,1.5508,1.5569,1.5565,1.5562,1.5383,1.538,1.5378,0,0,0,0,0,0,1.579,1.5779,1.5684,1.5727,1.5715,1.5698,1.5672,1.567,1.5653,1.563,1.5627,1.5652,1.5605,1.5595,1.5538,1.5505,1.5563,1.5559,1.5385,1.5382,1.5379,1.5345,0,0,0,0,0,0,1.5794,1.578,1.5755,1.5727,1.5713,1.5636,1.567,1.5668,1.5646,1.5648,1.5615,1.5612,1.5606,1.5545,1.5534,1.55,1.5555,1.5388,1.5384,1.538,1.5348,1.5341,1.5334,0,0,0,0,0,1.5798,1.5747,1.5754,1.5742,1.5682,1.5634,1.5626,1.5622,1.5643,1.5617,1.5603,1.5613,1.5511,1.5539,1.5526,1.5491,1.539,1.5385,1.538,1.5352,1.5342,1.5334,0,0,0,0,0,0,1.577,1.5743,1.575,1.5689,1.5664,1.5637,1.5605,1.5612,1.5579,1.5583,1.5578,1.557,1.5511,1.5496,1.5527,1.5424,1.5454,1.5446,1.5436,1.5427,1.5419,1.5423,1.5551,0,0,0,0,0,1.5758,1.5722,1.57,1.5647,1.5635,1.5622,1.56,1.56,1.5573,1.5561,1.5542,1.5514,1.5476,1.5451,1.5415,1.5347,1.5339,1.5317,1.5309,1.5303,1.5296,1.5258,1.5247,1.5362,1.5362,1.5362,0,0,1.573,1.571,1.5688,1.5641,1.5622,1.5583,1.5612,1.5571,1.5541,1.5555,1.5499,1.5485,1.5453,1.539,1.5361,1.5375,1.5263,1.5297,1.5292,1.5288,1.5251,1.5241,1.5231,1.5358,1.5359,1.5359,0,0,1.5659,1.5642,1.5596,1.5576,1.5546,1.5538,1.5527,1.55,1.5491,1.5436,1.5445,1.5409,1.5344,1.5321,1.53,1.5221,1.5228,1.521,1.517,1.5133,1.5124,1.5115,1.5086,1.5075,1.5203,1.5203,1.5203,0,1.5627,1.5571,1.5571,1.5528,1.5507,1.5519,1.5471,1.5452,1.5411,1.5395,1.5412,1.533,1.531,1.5241,1.5222,1.5205,1.5191,1.5212,1.5125,1.5117,1.511,1.5081,1.507,1.52,1.5201,1.5201,1.5201,0,1.5533,1.5494,1.546,1.5422,1.5397,1.5352,1.5344,1.5318,1.532,1.5309,1.5252,1.5229,1.5187,1.5171,1.5172,1.5102,1.5112,1.5127,1.5156,1.5096,1.5069,1.5058,1.5197,1.5198,1.5199,1.5199,0,0,1.5441,1.5405,1.5392,1.5375,1.5344,1.5312,1.5268,1.5229,1.5206,1.5178,1.5139,1.5084,1.5098,1.5074,1.5073,1.504,1.4977,1.5059,1.5059,1.5043,1.4897,1.4884,1.4872,1.4983,1.4981,1.4979,1.4899,0,1.5367,1.5289,1.5288,1.5216,1.5179,1.5191,1.5151,1.5127,1.5116,1.5082,1.507,1.503,1.5052,1.5038,1.5007,1.4992,1.4947,1.4998,1.4944,1.4943,1.495,1.4858,1.4844,1.4769,1.4889,1.4887,1.4886,0,1.5269,1.5239,1.5164,1.5138,1.5122,1.5087,1.5051,1.5019,1.4991,1.4985,1.496,1.4963,1.4915,1.4948,1.4881,1.4915,1.4894,1.4883,1.488,1.4873,1.4909,1.4846,1.4746,1.4734,1.4869,1.487,1.4872,0,1.5207,1.5148,1.5095,1.508,1.5049,1.5024,1.5009,1.4983,1.496,1.4928,1.4913,1.4875,1.4854,1.4824,1.4817,1.4841,1.475,1.4782,1.4742,1.4742,1.472,1.4721,1.4612,1.4709,1.471,1.471,1.471,0,1.5122,1.5075,1.5067,1.5034,1.4982,1.498,1.4928,1.4915,1.4892,1.4856,1.4864,1.4829,1.4822,1.4786,1.478,1.4724,1.4715,1.4708,1.4706,1.4706,1.4707,1.469,1.4694,1.4707,1.4708,1.4708,1.4709,0,1.5044,1.5037,1.498,1.4955,1.4948,1.491,1.4888,1.4856,1.4847,1.4801,1.479,1.4775,1.4732,1.4722,1.4672,1.4667,1.4601,1.4606,1.4611,1.4611,1.4571,1.4574,1.4446,1.4428,1.4539,1.4538,1.4537,0,1.4989,1.4953,1.4926,1.4903,1.4887,1.485,1.4827,1.4824,1.4799,1.4765,1.4736,1.4695,1.4662,1.4593,1.4576,1.4537,1.454,1.4498,1.4534,1.4534,1.4537,1.4538,1.4534,1.449,1.4489,1.4488,1.4487,0,1.4892,1.4891,1.4858,1.4823,1.4795,1.4767,1.4741,1.4721,1.4715,1.4686,1.4643,1.4618,1.4567,1.4525,1.4486,1.4469,1.4476,1.4476,1.4464,1.4463,1.4466,1.4462,1.459,1.4478,1.4479,1.448,1.448,1.4481,1.4823,1.4791,1.4767,1.4729,1.471,1.4685,1.4653,1.4641,1.4606,1.4565,1.4565,1.4518,1.4491,1.4439,1.442,1.4382,1.4395,1.4379,1.4374,1.437,1.4365,1.4474,1.4375,1.4376,1.4376,1.4376,1.4376,0,1.4725,1.471,1.4676,1.4639,1.4609,1.4621,1.4592,1.4566,1.4525,1.45,1.4468,1.4418,1.4378,1.4359,1.4319,1.4292,1.4294,1.4281,1.4282,1.4278,1.4357,1.437,1.428,1.428,1.428,1.428,1.428,1.428,1.467,1.4617,1.4613,1.455,1.4535,1.449,1.4473,1.4449,1.4429,1.4374,1.4341,1.433,1.4306,1.4265,1.4228,1.4223,1.4207,1.4192,1.4188,1.4262,1.4272,1.4281,1.4294,1.4189,1.4189,1.4112,1.4111,1.4111]}]]